Voltar ao catálogo

OV1-13 R/B

AtivoHEO
NORAD 3212·ROCKET BODY·🇺🇸 United States

Lançado Apr 6, 1968 de Vandenberg Space Force Base

Loading…

Próximas Passagens (próximas 24 horas)

TLE

AtualizadoSource: Space-Track

Época: Sep 13, 2026, 15:10 UTC

1 03212U 68026D   26256.63259254  .00000044  00000-0  93721-4 0  9991
2 03212  99.9741  80.8354 3789057 150.1996 238.2613  7.28625187326795

Acompanhe OV1-13 R/B em tempo real com AllMySat

Download on the App Store